Weather in Niya

Russia / Irkutsk Oblast     56°33′11″N   106°48′11″E
temp.,
°C
wind,
m/s
gust,
m/s
humid.,
%
clouds,
%
prec.,
mm/h
press.,
hPa
HPBL,
m
21 june, mon
mon2123:00+13se229696 0.4 100340
02:00+12s11971 2.7 100429
05:00+11se21970 0.8 100428
08:00+17s12810 0.8 1004305
11:00+24sw24450 0.0 10021753
14:00+27w353161 0.0 10012965
17:00+27wsw25323 0.0 10002605
20:00+20s115773 0.0 100315
22 june, tue
tue2223:00+15sse2280100 0.0 100423
02:00+14sw2290100 0.0 100525
05:00+13sw229766 0.0 100737
08:00+14w2386100 0.0 1009485
11:00+20w226133 0.0 1009818
14:00+23w335061 0.0 10081492
17:00+24nnw224669 0.0 10071695
20:00+22nne11607 0.0 100820
23 june, wed
wed2323:00+15sw1190100 1.0 100911
02:00+14nw1194100 1.3 100910
05:00+14w1195100 0.3 100811
08:00+18nne118476 0.4 1008253
11:00+26e224777 0.0 1006981
14:00+29ese2435100 0.0 10042664
17:00+28se143898 0.1 10032023
20:00+16nnw41196100 12.8 1007433
24 june, thu
thu2423:00+15wnw2298100 3.3 100849
02:00+14nw1198100 3.4 100913
05:00+13wnw1198100 0.0 100913
08:00+17nw129093 0.0 1008403
11:00+19nnw2273100 0.0 1007776
14:00+21nnw226436 0.0 1006858
17:00+24nnw225379 0.0 10041264
20:00+21nw23687 0.0 100498
25 june, fri
fri2523:00+15wsw1194100 1.2 100511
02:00+15wnw119596 1.3 100411
05:00+14w119734 0.0 100515
08:00+18w128629 0.1 1005372
11:00+24nw225790 0.0 10051294
14:00+23wnw2367100 0.7 1005719
17:00+18wnw3691100 1.8 1005342
20:00+17sse1197100 6.3 100731